Huron, SD

3:55 PM CDT on August 20, 2019 (GMT -0500)
Huron Regional

Weather History for KHON - July, 2019

Change the Weather History Date:

Thursday, July 18, 2019

  Actual Average Record
Temperature  
Mean Temperature 79 °F 74 °F  
Max Temperature 91 °F 87 °F 107 °F (1940)
Min Temperature 67 °F 62 °F 48 °F (2009)
Degree Days  
Heating Degree Days 0 0  
Month to date heating degree days 0 0  
Since 1 June heating degree days 28 51  
Since 1 July heating degree days 0 0  
Cooling Degree Days 14 9  
Month to date cooling degree days 202 156  
Year to date cooling degree days 374 322  
Since 1 June cooling degree days 361 289  
Growing Degree Days 28 (Base 50)    
Moisture  
Dew Point 70 °F    
Average Humidity 76    
Maximum Humidity 93    
Minimum Humidity 59    
Precipitation  
Precipitation 0.04 in 0.09 in 2.72 in (1919)
Month to date precipitation 4.54 1.59  
Year to date precipitation 21.21 13.50  
Snow  
Snow 0.00 in 0.00 in 0.00 in ()
Month to date snowfall 0.0 0.0  
Since 1 June snowfall 0.0 0.0  
Since 1 July snowfall 0.0 0.0  
Snow Depth 0.00 in    
Sea Level Pressure  
Sea Level Pressure 29.67 in    
Wind  
Wind Speed 4 mph (ENE)    
Max Wind Speed 15 mph    
Max Gust Speed 18 mph    
Visibility 10 miles    
Events Rain , Thunderstorm    
T = Trace of Precipitation, MM = Missing Value Source: NWS Daily Summary

Daily Weather History Graph

Daily Weather History Graph

Search for Another Location

Airport or City:

Astronomy

Jul. 18, 2019 Rise Set
Actual Time 6:05 AM CDT 9:12 PM CDT
Civil Twilight 5:30 AM CDT 9:47 PM CDT
Nautical Twilight 4:45 AM CDT 10:32 PM CDT
Astronomical Twilight 3:50 AM CDT 11:26 PM CDT
Moon 10:36 PM CDT (7/18) 7:37 AM CDT (7/18)
Length of Visible Light 16h 17m
Length of Day
15h 07m
Full, 97% of the Moon is Illuminated
Jul 18
Full
Jul 24
Last Quarter
Jul 31
New
Aug 7
First Quarter
Aug 15
Full

Hourly Weather History & Observations

Time (CDT) Temp. Heat Index Dew Point Humidity Pressure Visibility Wind Dir Wind Speed Gust Speed Precip Events Conditions
12:55 AM 75.9 °F - 72.0 °F 87% 29.73 in 10.0 mi Calm Calm - N/A   Scattered Clouds
1:55 AM 75.0 °F - 71.1 °F 87% 29.68 in 10.0 mi SE 8.1 mph - N/A   Clear
2:55 AM 73.9 °F - 71.1 °F 91% 29.66 in 10.0 mi Calm Calm - N/A   Clear
3:55 AM 68.0 °F - 64.9 °F 90% 29.68 in 10.0 mi NNE 3.5 mph - N/A   Clear
4:55 AM 66.9 °F - 64.0 °F 90% 29.67 in 10.0 mi Calm Calm - N/A   Clear
5:55 AM 66.9 °F - 64.0 °F 90% 29.65 in 10.0 mi North - - N/A   Clear
6:25 AM 66.9 °F - 64.0 °F 90% 29.68 in 10.0 mi North - - N/A Thunderstorm Partly Cloudy
6:39 AM 68.0 °F - 64.9 °F 90% 29.68 in 10.0 mi North - - N/A Thunderstorm Mostly Cloudy
6:45 AM 68.0 °F - 64.9 °F 90% 29.70 in 10.0 mi North - - N/A   Mostly Cloudy
6:55 AM 69.1 °F - 64.9 °F 87% 29.70 in 10.0 mi North - - N/A   Overcast
7:26 AM 68.0 °F - 64.0 °F 87% 29.72 in 10.0 mi NE 15.0 mph - 0.01 in Thunderstorm Overcast
7:40 AM 68.0 °F - 64.9 °F 90% 29.70 in 10.0 mi NE 9.2 mph - 0.01 in Thunderstorm Thunderstorm
7:55 AM 69.1 °F - 64.9 °F 87% 29.70 in 10.0 mi North 6.9 mph - 0.01 in Thunderstorm Overcast
8:03 AM 69.1 °F - 64.9 °F 87% 29.75 in 10.0 mi WNW 6.9 mph - N/A   Overcast
8:31 AM 69.1 °F - 64.9 °F 87% 29.70 in 9.0 mi East 6.9 mph - 0.01 in Rain Light Rain
8:47 AM 70.0 °F - 66.0 °F 87% 29.76 in 10.0 mi West 8.1 mph - 0.01 in   Mostly Cloudy
8:55 AM 69.1 °F - 66.0 °F 90% 29.75 in 6.0 mi West 8.1 mph - 0.01 in Rain Light Rain
9:20 AM 69.1 °F - 66.9 °F 93% 29.69 in 10.0 mi ESE 9.2 mph - 0.02 in Rain Light Rain
9:35 AM 70.0 °F - 68.0 °F 93% 29.71 in 10.0 mi ENE 3.5 mph - 0.02 in   Scattered Clouds
9:48 AM 71.1 °F - 68.0 °F 90% 29.73 in 10.0 mi North 4.6 mph - 0.02 in   Mostly Cloudy
9:55 AM 72.0 °F - 69.1 °F 91% 29.69 in 10.0 mi North 6.9 mph - 0.02 in   Mostly Cloudy
10:55 AM 75.9 °F - 72.0 °F 87% 29.68 in 10.0 mi NE 8.1 mph - 0.00 in   Overcast
11:55 AM 80.1 °F 84.5 °F 73.9 °F 81% 29.66 in 10.0 mi Variable 4.6 mph - N/A   Mostly Cloudy
12:13 PM 81.0 °F 86.7 °F 75.0 °F 82% 29.68 in 10.0 mi SE 4.6 mph - N/A   Scattered Clouds
12:55 PM 82.9 °F 90.2 °F 75.0 °F 77% 29.63 in 10.0 mi SE 4.6 mph - N/A   Clear
1:55 PM 84.9 °F 93.3 °F 75.0 °F 72% 29.63 in 10.0 mi Variable 6.9 mph - N/A   Mostly Cloudy
2:55 PM 87.1 °F 96.3 °F 75.0 °F 67% 29.62 in 10.0 mi ESE 3.5 mph - N/A   Scattered Clouds
3:55 PM 86.0 °F 93.8 °F 73.9 °F 67% 29.62 in 10.0 mi ESE 3.5 mph - N/A   Scattered Clouds
4:55 PM 88.0 °F 97.5 °F 75.0 °F 65% 29.61 in 10.0 mi East 4.6 mph - N/A   Partly Cloudy
5:55 PM 88.0 °F 94.7 °F 72.0 °F 59% 29.60 in 10.0 mi Calm Calm - N/A   Clear
6:55 PM 90.0 °F 100.2 °F 75.0 °F 61% 29.59 in 10.0 mi East 3.5 mph - N/A   Clear
7:55 PM 88.0 °F 97.5 °F 75.0 °F 65% 29.60 in 10.0 mi North 4.6 mph - N/A   Clear
8:55 PM 84.9 °F 93.3 °F 75.0 °F 72% 29.61 in 10.0 mi North 3.5 mph - N/A   Clear
9:55 PM 80.1 °F 85.1 °F 75.0 °F 85% 29.62 in 10.0 mi ENE 4.6 mph - N/A   Clear
10:55 PM 80.1 °F 85.1 °F 75.0 °F 85% 29.63 in 10.0 mi East 3.5 mph - N/A   Clear
11:55 PM 79.0 °F - 75.0 °F 88% 29.63 in 10.0 mi ENE 3.5 mph - N/A   Clear